User: anonymous
Location: Unspecified
(0.0000°N, 0.0000°E)
Time: 21:29:24
(UTC+02:00)
Language:

Cosmos 1892 Rocket - Orbit

View from above orbital plane
View from above orbital plane
View from above satellite
View from above satellite

Ground track
Ground track

The orbit data is extracted from the following two-line orbital elements,

1 18422U 87088B   14259.39991400  .00000502  00000-0  59399-4 0  3444
2 18422 082.5130 038.1684 0020997 145.3264 240.9385 14.82432361452927
Epoch (UTC): 16 September 2014 09:35:52
Eccentricity: 0.0020997
inclination: 82.5130°
perigee height: 607 km
apogee height: 636 km
right ascension of ascending node: 38.1684°
argument of perigee: 145.3264°
revolutions per day: 14.82432361
mean anomaly at epoch: 240.9385°
orbit number at epoch: 45292

The dashed part of the orbit path shows where the satellite is in the earth's shadow,  

DLR